Hourly Data Report for October 09, 2014

All times are specified in Local Standard Time (LST). Add 1 hour to adjust for Daylight Saving Time where and when it is observed.

GRISE FIORD CLIMATE
NUNAVUT

76°25'22.040" N
82°54'08.020" W
44.50 m
2402351
71971
NGC

Download Data

Hourly Data (October 2014)
Hourly Data Report for October 9, 2014
Temp Definition
°C
Dew Point Temp Definition
°C
Rel Hum Definition
%
Wind Dir Definition
10's deg

Wind Spd Definition
km/h
Visibility Definition
km
Stn Press Definition
kPa
Hmdx Definition


Wind Chill Definition


Weather Definition


TIME
00:00 -8.4 -11.3 79 3 7   102.21   -12 LegendNANA
01:00 -8.8 -10.8 86 10 4   102.21   -11 LegendNANA
02:00 -9.2 -12.0 80 3 4   102.19   -11 LegendNANA
03:00 -9.2 -12.5 77 5 4   102.14   -11 LegendNANA
04:00 -7.7 -10.4 81 11 10   102.10   -13 LegendNANA
05:00 -9.3 -12.9 75 6 6   102.08   -13 LegendNANA
06:00 -9.6 -12.7 78 2 3   102.10   -11 LegendNANA
07:00 -9.5 -12.3 80 4 4   102.07   -12 LegendNANA
08:00 -9.9 -12.0 85 6 3   102.05   -12 LegendNANA
09:00 -8.4 -11.3 80 4 8   102.01   -13 LegendNANA
10:00 -9.6 -11.7 85 6 3   102.02   -11 LegendNANA
11:00 -8.3 -11.0 81 5 3   101.99   -10 LegendNANA
12:00 -7.9 -10.2 84 9 3   101.98   -9 LegendNANA
13:00 -7.6 -10.3 81 3 4   101.99   -10 LegendNANA
14:00 -6.6 -10.6 73 31 2   102.00   -8 LegendNANA
15:00 -7.4 -10.1 81 5 2   101.99   -8 LegendNANA
16:00 -8.6 -10.8 84 3 2   101.98   -10 LegendNANA
17:00 -8.7 -10.2 89 6 3   102.01   -10 LegendNANA
18:00 -8.8 -10.4 88 4 5   102.00   -12 LegendNANA
19:00 -9.3 -11.3 85 4 3   101.99   -11 LegendNANA
20:00 -8.7 -10.6 86 5 5   101.95   -11 LegendNANA
21:00 -7.8 -9.4 88 29 3   101.92   -9 LegendNANA
22:00 -9.4 -11.0 89 7 2   101.90   -11 LegendNANA
23:00 -9.4 -10.8 90 3 3   101.89   -11 LegendNANA

Notes on Data Quality.

Legend

  • E = Estimated
  • M = Missing
  • NA = Not Available
  • ‡ = Partner data that is not subject to review by the National Climate Archives
Date modified: